Terminal Aerodrome Forecast
Issued by NWS

Home | Current Version | Previous Version | Graphics & Text | Print | Product List | Glossary On
Versions: 1 2 3 4 5 6 7 8 9 10 11 12
000
FTUS43 KMPX 312300
TAFAXN
TAF
KAXN 312332Z 0100/0124 31008KT P6SM FEW050
     FM010200 31002KT P6SM SKC
     FM011600 33005KT P6SM SCT050=

USA.gov is the U.S. government's official web portal to all federal, state and local government web resources and services.